| time (UTC) | temp C | wind direction | speed KPH | gust KPH | rain 1hr cm | rain 24hr cm | rain mn cm | humidity % | barometer mb |
| 20260506044537 | 18 | 296 | 8.0 | 12.9 | 0.00 | 0.79 | 0.36 | 43 | 1010.9 |
| 20260506043033 | 18 | 292 | 4.8 | 20.9 | 0.00 | 0.79 | 0.36 | 49 | 1010.7 |
| 20260506041538 | 18 | 295 | 8.0 | 20.9 | 0.00 | 0.79 | 0.36 | 49 | 1010.6 |
| 20260506040030 | 18 | 311 | 4.8 | 12.9 | 0.00 | 0.79 | 0.36 | 47 | 1010.3 |
| 20260506034529 | 18 | 298 | 3.2 | 8.0 | 0.00 | 0.79 | 0.36 | 43 | 1010.0 |
| 20260506033028 | 18 | 261 | 1.6 | 11.3 | 0.00 | 0.79 | 0.36 | 42 | 1009.8 |
| 20260506031534 | 19 | 295 | 3.2 | 11.3 | 0.00 | 0.79 | 0.36 | 40 | 1009.5 |
| 20260506030024 | 19 | 299 | 6.4 | 12.9 | 0.00 | 0.79 | 0.36 | 39 | 1009.3 |
| 20260506024536 | 19 | 281 | 6.4 | 12.9 | 0.00 | 0.86 | 0.36 | 38 | 1009.1 |
| 20260506023022 | 20 | 294 | 6.4 | 16.1 | 0.00 | 0.86 | 0.36 | 36 | 1008.9 |
| 20260506021522 | 20 | 289 | 9.7 | 17.7 | 0.00 | 0.86 | 0.36 | 34 | 1008.6 |
| 20260506020020 | 20 | 299 | 11.3 | 22.5 | 0.00 | 0.86 | 0.36 | 33 | 1008.4 |
| 20260506014518 | 21 | 292 | 8.0 | 17.7 | 0.00 | 0.91 | 0.36 | 34 | 1008.2 |
| 20260506013019 | 21 | 276 | 16.1 | 33.8 | 0.00 | 0.91 | 0.36 | 33 | 1008.1 |
| 20260506011539 | 22 | 304 | 16.1 | 32.2 | 0.00 | 0.91 | 0.36 | 34 | 1008.0 |
| 20260506010116 | 22 | 277 | 8.0 | 29.0 | 0.00 | 0.91 | 0.36 | 31 | 1007.8 |
| 20260506004600 | 22 | 299 | 9.7 | 25.7 | 0.00 | 0.91 | 0.36 | 30 | 1007.6 |
| 20260506003047 | 23 | 288 | 11.3 | 20.9 | 0.00 | 0.91 | 0.36 | 30 | 1007.4 |
| 20260506001545 | 23 | 289 | 16.1 | 30.6 | 0.00 | 0.91 | 0.36 | 30 | 1007.3 |
| 20260506000110 | 23 | 250 | 4.8 | 30.6 | 0.00 | 0.91 | 0.36 | 28 | 1007.3 |
| 20260505234546 | 24 | 288 | 8.0 | 17.7 | 0.00 | 0.91 | 0.36 | 28 | 1007.2 |
| 20260505233040 | 24 | 283 | 9.7 | 17.7 | 0.00 | 0.91 | 0.36 | 27 | 1007.1 |
| 20260505231510 | 24 | 290 | 14.5 | 35.4 | 0.00 | 0.91 | 0.36 | 26 | 1007.1 |
| 20260505230010 | 25 | 312 | 4.8 | 12.9 | 0.00 | 0.91 | 0.36 | 30 | 1007.1 |
| 20260505224503 | 23 | 297 | 0.0 | 9.7 | 0.00 | 0.91 | 0.36 | 34 | 1007.3 |
| 20260505223003 | 23 | 285 | 4.8 | 14.5 | 0.00 | 0.91 | 0.36 | 35 | 1007.5 |
| 20260505221502 | 23 | 248 | 3.2 | 17.7 | 0.00 | 0.91 | 0.36 | 34 | 1007.6 |
| 20260505220100 | 24 | 242 | 8.0 | 20.9 | 0.00 | 0.91 | 0.36 | 31 | 1007.7 |
| 20260505214556 | 25 | 285 | 0.0 | 11.3 | 0.00 | 0.91 | 0.36 | 34 | 1008.0 |
| 20260505213055 | 24 | 232 | 6.4 | 24.1 | 0.00 | 0.91 | 0.36 | 30 | 1008.1 |
| 20260505211553 | 24 | 284 | 6.4 | 24.1 | 0.00 | 0.91 | 0.36 | 32 | 1008.1 |
| 20260505210052 | 24 | 257 | 9.7 | 19.3 | 0.00 | 0.91 | 0.36 | 29 | 1008.2 |
| 20260505204521 | 24 | 296 | 9.7 | 19.3 | 0.00 | 0.91 | 0.36 | 33 | 1008.2 |
| 20260505203019 | 23 | 282 | 11.3 | 22.5 | 0.00 | 0.91 | 0.36 | 33 | 1008.1 |
| 20260505201514 | 22 | 243 | 3.2 | 25.7 | 0.00 | 0.91 | 0.36 | 41 | 1008.3 |
| 20260505200012 | 22 | 264 | 4.8 | 20.9 | 0.00 | 0.91 | 0.36 | 42 | 1008.4 |
| 20260505194509 | 21 | 257 | 0.0 | 8.0 | 0.00 | 0.91 | 0.36 | 55 | 1008.6 |
| 20260505193010 | 21 | 102 | 0.0 | 4.8 | 0.00 | 0.91 | 0.36 | 54 | 1008.5 |
| 20260505191552 | 21 | 268 | 3.2 | 9.7 | 0.00 | 0.91 | 0.36 | 55 | 1008.7 |
| 20260505190136 | 21 | 300 | 0.0 | 8.0 | 0.00 | 0.91 | 0.36 | 55 | 1008.9 |
| 20260505184535 | 20 | 1 | 3.2 | 8.0 | 0.00 | 0.91 | 0.36 | 58 | 1009.2 |
| 20260505183029 | 20 | 291 | 1.6 | 9.7 | 0.00 | 0.91 | 0.36 | 61 | 1009.4 |
| 20260505181528 | 19 | 238 | 0.0 | 6.4 | 0.00 | 0.91 | 0.36 | 61 | 1009.7 |
| 20260505180038 | 19 | 302 | 0.0 | 4.8 | 0.00 | 0.91 | 0.36 | 61 | 1009.7 |
| 20260505174524 | 19 | 295 | 3.2 | 8.0 | 0.00 | 0.91 | 0.36 | 62 | 1009.7 |
| 20260505173026 | 19 | 283 | 1.6 | 6.4 | 0.00 | 0.91 | 0.36 | 61 | 1009.7 |
| 20260505171522 | 18 | 308 | 1.6 | 4.8 | 0.00 | 0.91 | 0.36 | 64 | 1009.7 |
| 20260505170023 | 19 | 297 | 0.0 | 6.4 | 0.00 | 0.91 | 0.36 | 64 | 1009.6 |
| 20260505164515 | 18 | 120 | 0.0 | 4.8 | 0.00 | 0.91 | 0.36 | 73 | 1009.6 |
| 20260505163015 | 17 | 131 | 0.0 | 3.2 | 0.00 | 0.91 | 0.36 | 79 | 1009.6 |
| 20260505161508 | 16 | 262 | 0.0 | 0.0 | 0.00 | 0.91 | 0.36 | 80 | 1009.8 |
| 20260505153003 | 16 | 250 | 0.0 | 0.0 | 0.00 | 0.91 | 0.36 | 83 | 1009.4 |
| 20260505151601 | 16 | 123 | 0.0 | 4.8 | 0.00 | 0.91 | 0.36 | 82 | 1009.3 |
| 20260505150126 | 16 | 123 | 0.0 | 0.0 | 0.00 | 0.91 | 0.36 | 86 | 1009.3 |
| 20260505124551 | 13 | 88 | 0.0 | 1.6 | 0.03 | 0.91 | 0.36 | 90 | 1008.1 |
| 20260505123142 | 14 | 115 | 0.0 | 0.0 | 0.05 | 0.91 | 0.36 | 91 | 1008.2 |
| 20260505121612 | 13 | 115 | 0.0 | 0.0 | 0.05 | 0.91 | 0.36 | 90 | 1008.1 |
| 20260505120040 | 13 | 115 | 0.0 | 0.0 | 0.03 | 0.89 | 0.33 | 88 | 1007.8 |
| 20260505114536 | 14 | 111 | 0.0 | 8.0 | 0.03 | 0.89 | 0.33 | 87 | 1007.6 |
| 20260505113036 | 14 | 93 | 0.0 | 0.0 | 0.03 | 0.86 | 0.30 | 88 | 1008.0 |
| 20260505111538 | 13 | 94 | 0.0 | 6.4 | 0.03 | 0.86 | 0.30 | 88 | 1008.0 |
| 20260505101525 | 14 | 96 | 0.0 | 6.4 | 0.08 | 0.84 | 0.28 | 90 | 1008.9 |
| 20260505100035 | 13 | 94 | 3.2 | 11.3 | 0.08 | 0.81 | 0.25 | 90 | 1009.0 |
| 20260505094523 | 14 | 103 | 1.6 | 9.7 | 0.08 | 0.81 | 0.25 | 90 | 1009.2 |
| 20260505093025 | 14 | 111 | 4.8 | 19.3 | 0.08 | 0.79 | 0.23 | 90 | 1008.9 |
| 20260505091518 | 14 | 119 | 6.4 | 16.1 | 0.03 | 0.71 | 0.18 | 90 | 1009.4 |
| 20260505090013 | 14 | 109 | 4.8 | 12.9 | 0.05 | 0.71 | 0.18 | 89 | 1009.3 |
| 20260505084511 | 14 | 119 | 3.2 | 14.5 | 0.10 | 0.71 | 0.18 | 89 | 1009.9 |
| 20260505083004 | 14 | 136 | 1.6 | 6.4 | 0.10 | 0.71 | 0.15 | 89 | 1010.5 |
| 20260505081504 | 14 | 115 | 0.0 | 8.0 | 0.13 | 0.71 | 0.15 | 89 | 1010.7 |
| 20260505080100 | 14 | 88 | 1.6 | 4.8 | 0.13 | 0.69 | 0.13 | 89 | 1011.0 |
| 20260505074559 | 15 | 94 | 0.0 | 4.8 | 0.10 | 0.64 | 0.08 | 89 | 1011.3 |
| 20260505073100 | 15 | 101 | 0.0 | 1.6 | 0.10 | 0.61 | 0.05 | 90 | 1011.6 |
| 20260505071550 | 15 | 99 | 0.0 | 0.0 | 0.13 | 0.58 | 0.03 | 90 | 1011.3 |
| 20260505070047 | 15 | 99 | 0.0 | 1.6 | 0.18 | 0.56 | 0.00 | 89 | 1011.2 |
| 20260505064545 | 15 | 101 | 0.0 | 1.6 | 0.20 | 0.53 | 0.53 | 89 | 1011.2 |
| 20260505063017 | 15 | 104 | 0.0 | 3.2 | 0.23 | 0.51 | 0.51 | 87 | 1011.0 |
| 20260505061515 | 15 | 110 | 0.0 | 0.0 | 0.20 | 0.43 | 0.43 | 86 | 1011.1 |
| 20260505060009 | 15 | 100 | 0.0 | 4.8 | 0.18 | 0.38 | 0.38 | 87 | 1011.0 |
| 20260505054509 | 15 | 110 | 0.0 | 0.0 | 0.15 | 0.33 | 0.33 | 87 | 1010.8 |
| 20260505053008 | 15 | 100 | 0.0 | 1.6 | 0.10 | 0.28 | 0.28 | 85 | 1010.9 |
| 20260505051508 | 15 | 112 | 0.0 | 6.4 | 0.08 | 0.23 | 0.23 | 85 | 1010.7 |